Tracking 30746 objects as of 20-Jun-2025
HD Live streaming from Space Station
objects crossing your sky now

AVUM R/B

Track AVUM R/B now!
10-day predictions
AVUM R/B is classified as:


NORAD ID: 53109
Int'l Code: 2022-080E
Perigee: 5,839.6 km
Apogee: 5,860.9 km
Inclination: 70.1 °
Period: 224.1 minutes
Semi major axis: 12221 km
RCS: Unknown
Launch date: July 13, 2022
Source: France (FR)
Launch site: FRENCH GUIANA (FRGUI)

Uplink (MHz):
Downlink (MHz): 436.750
Beacon (MHz):
Mode: 1k2AFSK 2k4*/9k6GMSK
Call sign:
Status: Inactive


Uplink (MHz):
Downlink (MHz): 436.750
Beacon (MHz):
Mode: 1k2AFSK 2k4*/9k6GMSK
Call sign: FX6FRA
Status: Inactive


Note: This is a ROCKET BODY
Your satellite tracking list
Your tracking list is empty




NASA's NSSDC Master Catalog

Two Line Element Set (TLE):
1 53109U 22080E   25170.24023449 -.00000003  00000-0  00000-0 0  9997
2 53109  70.1415  64.4606 0008704   7.5912 352.4878  6.42583731 68748
Source of the keplerian elements: AFSPC